Theta_e
314 312 313 313 313 315 318 320 324 324 324 326 322 319 318 318 318 319 321 320 318 318 317 317 317 317 318 318 318 317 317 321 321 324 323 322 321 319 319 317 320 319 318 322 325 328 329 330 330 329 330 329 330 330 331 331 330 330 330 330 330 331 328 322 321 320 320 319 318 318 318 317 317 317 317 317 316 317 320 322 326 329 332 333 333 335 335 334 331 328 327 328 328 329 329 326 325
313 313 314 313 315 319 320 321 327 331 328 320 318 318 316 317 318 321 325 323 320 318 317 317 318 318 318 318 318 318 318 319 319 320 319 320 320 320 319 318 319 319 318 320 323 326 327 329 330 330 330 329 330 329 330 330 330 330 330 329 330 331 328 322 320 320 319 319 319 319 319 318 318 318 317 317 317 321 324 324 327 329 331 333 334 335 336 334 330 325 324 324 325 327 328 328 328
313 314 313 314 318 319 323 323 325 333 329 318 320 324 317 316 322 325 324 321 318 317 318 317 318 319 318 319 319 319 320 319 319 319 319 320 320 319 319 318 318 319 319 318 322 324 326 327 328 329 329 330 330 329 329 329 330 330 330 330 330 330 330 323 318 319 319 319 319 319 320 320 320 319 319 319 318 322 325 325 327 329 331 332 334 335 335 333 326 323 322 321 321 321 322 323 325
315 315 314 317 319 320 332 333 332 338 328 319 320 324 322 320 326 325 318 317 318 317 318 317 318 319 319 320 319 319 319 319 320 319 320 319 319 318 317 318 317 318 319 318 319 321 325 326 326 328 328 329 329 330 329 329 330 330 330 330 330 330 330 325 319 318 319 320 320 320 321 320 321 322 323 322 320 322 324 326 327 328 330 331 334 335 335 332 326 324 322 318 317 317 317 318 319
317 319 317 319 320 320 331 330 330 332 322 322 319 318 327 327 327 321 316 316 318 317 318 318 319 318 319 319 319 319 319 319 320 319 319 318 317 317 316 317 317 318 319 319 319 319 322 324 325 326 327 327 328 328 328 329 329 330 330 330 330 329 329 327 321 318 320 320 320 321 321 322 325 328 329 326 323 324 324 326 327 327 331 332 332 333 332 329 326 323 319 315 314 314 314 314 315
320 321 319 319 320 316 324 323 321 325 324 326 318 318 325 321 319 316 315 318 318 318 318 318 318 318 318 318 319 319 319 319 319 319 319 317 316 316 316 316 316 317 318 319 319 319 319 322 324 325 326 326 327 327 326 327 328 328 328 329 329 328 328 328 322 319 320 320 320 321 322 326 329 329 331 328 322 323 324 326 327 327 330 329 328 327 325 324 320 317 315 314 312 312 312 312 312
319 320 318 320 319 318 330 328 324 327 321 319 316 320 319 312 312 313 316 318 318 318 318 318 318 318 318 317 319 319 319 319 319 319 318 317 316 315 315 315 316 316 316 318 319 319 319 319 320 323 325 326 326 326 326 326 326 326 327 328 328 328 328 327 324 319 319 320 320 321 325 330 330 328 330 331 325 322 324 325 325 325 326 325 324 323 321 318 314 312 312 312 311 311 310 311 311
319 319 317 324 328 328 335 328 328 329 316 313 314 317 315 311 311 314 317 316 317 317 317 318 317 319 319 317 318 319 318 319 319 319 319 317 316 316 315 315 315 316 315 316 318 320 319 319 319 320 322 325 326 326 325 325 325 325 326 327 327 328 327 327 324 320 319 320 320 323 329 331 330 329 329 331 329 323 324 325 325 325 324 324 323 320 317 314 311 310 310 310 310 310 310 310 310
319 319 317 324 329 331 335 324 323 323 320 319 316 316 314 313 313 315 318 316 316 316 316 317 317 318 317 316 317 319 318 319 318 319 319 317 316 315 315 315 315 315 315 315 317 319 319 319 319 319 320 322 325 325 325 325 325 325 325 326 327 327 328 327 324 321 320 320 320 324 330 331 329 328 327 330 331 327 325 326 327 327 325 324 322 318 315 312 310 309 308 309 309 309 309 309 308
320 320 317 323 329 326 326 323 322 321 323 319 314 316 314 314 315 314 316 316 315 315 316 317 317 318 317 317 318 318 318 319 318 319 318 316 316 316 315 316 315 315 315 315 315 317 319 320 319 319 319 320 323 324 325 325 325 325 324 325 326 327 327 328 325 322 321 320 321 324 328 330 329 328 328 329 331 330 329 329 329 329 327 326 322 318 315 311 308 308 307 307 308 308 307 306 305
320 319 317 327 329 320 318 323 328 328 326 318 313 316 315 315 315 314 315 315 315 314 315 317 317 318 317 317 318 318 317 317 318 318 319 317 316 316 316 316 316 316 315 315 315 316 317 319 320 320 320 320 322 322 324 325 325 325 324 324 325 326 327 328 327 324 323 322 322 325 327 329 329 328 329 330 331 332 331 331 330 330 329 327 323 318 314 310 308 308 307 306 306 305 305 304 304
318 320 329 337 326 318 320 323 329 332 330 324 317 315 315 315 315 315 315 314 315 314 315 316 316 317 317 316 316 317 316 316 316 317 318 317 316 316 316 316 316 316 316 315 315 315 316 318 319 320 320 321 321 322 323 323 325 325 324 324 324 325 326 327 328 326 324 324 324 325 327 328 329 328 328 330 331 332 331 331 330 330 329 327 324 317 313 310 308 307 306 306 305 304 304 304 303
319 319 331 331 320 322 321 320 325 330 328 320 315 315 315 314 315 315 314 315 313 314 316 316 316 317 316 316 316 316 316 315 315 315 316 317 317 316 316 316 316 316 316 316 315 315 315 316 317 319 320 321 321 322 322 323 324 324 324 324 324 324 325 327 328 328 326 325 325 326 327 327 328 328 328 329 331 332 332 331 330 330 329 327 324 317 313 311 309 307 306 305 304 304 304 304 304
319 318 324 321 317 324 322 319 322 323 320 316 315 314 315 314 315 315 314 315 314 315 317 316 317 316 316 315 315 316 315 315 315 315 315 316 316 316 317 316 316 316 316 316 316 315 315 315 316 317 319 321 322 322 324 324 325 325 325 324 324 324 325 326 327 329 328 326 326 326 327 327 327 327 327 328 329 331 332 331 330 330 328 326 323 316 312 311 309 307 306 305 304 304 304 304 304
318 317 325 324 319 323 319 319 322 321 318 316 316 314 315 316 315 315 314 316 316 315 316 317 316 316 316 314 315 315 315 315 315 315 315 315 315 316 317 317 317 316 316 316 316 315 315 315 315 315 316 319 320 322 324 326 327 326 326 326 325 326 325 326 326 328 329 327 325 326 326 327 327 326 326 325 327 329 330 331 330 328 327 327 323 316 312 311 309 307 305 304 304 304 304 304 304
317 315 323 322 317 319 316 317 321 321 319 315 314 315 316 315 315 315 315 315 315 315 316 316 316 316 316 315 315 315 315 315 315 315 315 315 315 316 316 317 317 316 316 316 316 316 315 315 315 315 315 316 318 321 323 325 327 327 328 328 327 327 326 326 326 327 329 328 326 326 326 327 327 327 326 324 323 325 327 329 329 328 327 327 323 315 313 311 309 307 305 304 304 304 304 304 305
314 318 325 321 317 318 317 321 320 320 323 317 314 315 316 316 316 315 315 315 315 315 315 316 315 315 315 315 315 314 314 315 315 315 314 315 315 315 316 317 317 317 317 316 316 316 316 316 315 315 315 315 316 318 321 323 325 326 328 329 328 328 328 328 327 328 329 328 327 326 327 327 327 327 327 326 323 322 324 327 329 329 327 327 323 316 313 311 309 307 305 304 303 304 304 304 305
318 327 324 319 322 322 321 325 319 316 321 316 314 315 314 316 315 314 315 315 314 314 314 315 315 315 315 314 314 314 314 314 314 314 315 315 314 315 315 316 317 316 316 316 316 316 316 316 315 315 315 315 315 316 319 321 323 325 327 329 329 329 329 329 328 328 329 329 328 327 327 327 327 327 327 327 326 324 324 326 328 329 328 328 324 317 314 312 309 307 305 303 303 304 304 304 305
321 326 317 323 332 322 316 320 315 314 317 314 314 314 313 314 314 314 315 315 313 314 314 315 315 315 315 314 314 314 314 315 315 314 315 314 314 314 315 315 316 316 316 316 316 316 317 317 316 316 316 316 316 316 317 319 321 323 326 327 328 329 330 330 329 329 329 329 328 328 328 328 328 328 328 327 327 326 327 327 328 328 328 328 324 318 315 312 309 308 306 303 303 303 303 303 304
317 317 320 332 326 314 313 314 314 315 315 314 314 313 312 314 313 313 314 313 313 314 315 314 314 315 315 314 314 314 314 314 314 315 315 314 314 314 314 315 315 316 316 316 316 316 317 317 317 317 317 317 317 317 317 318 320 322 324 326 328 329 329 330 330 329 330 329 328 328 329 329 329 329 329 329 328 327 327 327 328 327 328 328 324 319 315 312 311 310 307 304 302 303 303 303 304
315 316 326 327 313 313 317 314 316 315 314 314 313 312 313 315 314 313 313 314 315 314 314 314 314 314 314 315 314 314 314 314 314 314 315 314 314 314 314 314 314 315 315 315 316 316 316 316 317 317 317 317 318 317 317 318 319 321 323 325 327 330 330 329 329 329 329 329 329 329 329 329 329 330 330 329 329 329 328 327 327 326 327 327 324 320 316 313 313 312 310 306 302 302 302 302 303
316 318 320 316 311 316 317 315 317 315 314 314 312 313 315 315 313 313 313 314 315 314 314 314 313 313 314 314 314 314 314 314 314 314 314 314 314 314 314 315 315 314 315 315 315 315 315 316 316 316 317 317 317 318 318 319 319 320 321 322 325 330 331 328 328 329 328 328 328 328 329 329 329 330 330 328 328 329 328 326 326 327 326 326 323 320 318 316 316 314 312 308 304 302 302 302 302
318 319 314 314 313 315 316 316 316 314 314 313 313 314 313 312 313 313 312 313 314 314 313 313 313 313 313 313 313 314 314 314 315 314 315 314 314 315 315 315 314 315 315 314 314 314 314 314 315 316 316 317 317 318 318 319 320 320 320 320 321 325 329 329 329 328 327 328 328 328 327 328 329 330 329 327 326 326 327 327 326 326 326 326 323 320 319 318 318 317 314 310 306 302 301 302 302
318 320 315 314 314 313 315 314 314 314 313 313 313 312 311 312 313 313 312 313 313 312 312 312 313 313 312 313 313 314 314 314 314 314 314 314 315 315 315 315 314 315 315 314 314 314 314 314 314 315 316 317 317 317 318 319 319 321 321 322 321 320 325 332 336 334 330 328 327 327 327 328 328 328 327 327 330 328 326 327 326 326 326 325 323 322 320 318 318 319 317 313 309 304 301 301 301
317 319 315 313 313 313 314 313 313 314 313 313 312 311 312 313 312 311 311 312 311 312 312 312 312 313 313 313 314 314 314 314 314 314 314 314 315 314 314 314 314 314 314 315 314 314 314 314 314 315 316 317 317 317 317 318 319 321 321 322 323 322 321 327 333 337 337 332 329 325 323 325 325 327 327 327 331 331 327 327 327 326 325 324 323 323 322 319 319 320 319 315 311 306 302 301 301
314 315 313 312 312 313 313 313 313 313 313 313 312 311 312 311 311 311 310 311 311 312 313 312 313 314 315 314 313 313 313 314 314 314 314 314 314 314 313 313 314 314 314 315 314 315 314 314 314 315 316 317 317 317 317 318 319 320 321 322 323 324 325 327 327 330 335 337 336 329 323 325 326 328 329 326 327 328 327 326 326 326 325 324 324 324 323 321 320 319 319 317 313 308 304 301 301
312 312 312 312 312 312 312 313 313 312 312 312 312 312 311 310 313 314 311 311 312 312 313 313 313 314 315 314 313 313 313 313 313 313 313 313 313 313 313 313 313 313 314 314 314 314 314 314 314 315 316 317 317 317 318 318 320 320 322 323 323 323 326 329 329 326 327 332 336 334 331 330 328 327 328 328 328 327 326 326 327 328 326 326 325 324 322 320 319 319 320 318 314 311 307 302 301
312 311 312 312 311 312 313 313 312 311 312 312 311 312 310 309 312 313 310 310 312 312 313 312 313 314 313 313 313 313 312 312 312 312 312 312 313 312 313 313 313 313 314 314 315 314 314 314 315 316 316 317 317 317 318 319 321 322 322 323 324 324 324 327 329 326 325 327 330 331 330 329 327 326 326 326 328 326 324 327 328 327 327 326 324 322 321 320 320 320 319 318 316 313 311 306 302
312 312 314 315 312 314 312 311 310 310 313 312 311 314 316 316 313 310 309 310 311 312 312 312 312 312 312 312 312 312 312 312 312 311 311 311 312 312 312 313 313 314 314 314 315 315 315 315 315 316 316 316 317 318 319 320 321 323 324 324 324 325 325 325 326 327 329 330 331 330 330 329 326 326 327 325 326 326 324 327 326 325 325 324 323 322 322 321 321 321 320 319 317 316 314 310 305
313 311 312 315 315 318 312 308 310 311 312 311 311 317 326 325 314 308 310 310 311 312 311 311 311 311 311 311 311 311 311 311 311 311 311 311 311 312 312 313 313 314 314 315 316 316 316 316 316 316 317 317 318 319 320 321 323 324 324 325 325 324 323 324 325 326 328 328 329 328 327 328 326 327 327 325 326 327 327 327 324 323 323 322 323 322 322 321 320 320 320 319 319 318 316 313 309
315 311 314 318 315 322 317 308 310 312 312 311 312 318 324 325 312 307 311 310 311 312 310 310 310 310 310 310 310 310 310 310 310 310 310 310 311 312 312 313 314 314 315 314 315 316 316 317 317 317 317 318 319 321 322 323 324 325 326 327 328 328 324 324 328 326 325 325 324 325 326 327 327 328 327 326 326 326 326 325 323 322 321 322 322 322 321 321 320 319 319 319 319 319 318 316 312
321 313 321 323 314 323 322 308 308 313 312 309 312 318 320 320 310 307 311 311 311 311 309 310 309 309 309 309 309 309 309 309 309 309 309 310 310 311 312 313 313 314 315 315 315 315 315 316 316 317 318 319 320 322 324 325 326 326 327 328 329 331 329 328 331 330 328 326 323 325 329 328 328 329 327 326 325 324 324 323 322 321 320 321 321 322 322 321 320 320 319 319 319 318 318 317 316
324 315 320 325 317 319 319 311 307 309 311 310 311 317 318 317 310 307 311 311 311 310 308 308 307 308 307 307 308 307 308 308 308 309 309 310 310 311 311 312 313 314 314 315 315 315 315 315 316 317 317 319 322 324 325 325 326 326 325 326 327 328 328 328 329 330 330 329 327 328 329 329 329 329 328 326 325 324 324 323 323 321 321 322 322 323 322 321 320 320 319 319 318 318 317 317 316
324 316 315 320 317 316 317 318 311 307 312 313 312 313 315 316 310 307 310 310 310 308 306 306 306 306 306 306 306 306 307 307 308 308 308 309 310 310 311 312 313 313 314 315 315 316 316 317 318 318 319 321 323 324 325 325 325 326 325 326 326 324 325 326 326 327 327 328 328 327 328 329 328 328 327 326 327 326 326 325 324 323 324 324 323 324 323 321 321 320 319 319 318 317 317 316 315
326 321 318 319 317 315 316 318 313 310 314 315 314 315 315 317 311 307 307 308 309 306 304 304 304 304 304 304 305 305 305 306 307 307 308 308 309 310 310 311 312 313 314 315 316 317 317 318 319 319 320 322 323 323 323 324 324 325 325 324 324 324 324 325 325 325 325 326 326 325 326 326 326 326 325 325 326 325 325 325 324 324 324 323 323 323 322 321 321 320 319 318 317 317 316 315 314
323 322 322 323 319 317 317 316 312 310 313 315 314 315 315 317 314 308 305 306 306 304 303 303 303 303 303 303 303 304 304 305 305 306 307 308 308 309 310 310 311 312 313 314 316 316 317 318 318 318 319 320 321 322 322 322 322 322 323 323 323 323 323 324 324 324 324 324 324 324 324 324 324 324 324 324 324 323 323 323 323 323 322 321 321 321 321 320 320 319 318 317 317 316 315 314 314
316 316 317 319 318 317 315 316 313 308 312 318 315 314 315 315 315 307 304 305 304 303 303 302 302 302 301 302 302 303 303 303 304 305 307 307 308 309 309 310 310 311 311 312 313 314 316 318 317 317 319 320 320 320 321 321 321 321 321 321 321 321 321 322 322 321 322 322 322 323 322 322 322 322 322 323 322 321 321 321 321 321 320 320 320 319 319 318 318 318 317 317 316 315 315 314 313
313 313 315 315 315 315 313 313 314 309 311 319 316 314 315 314 313 306 303 305 304 302 302 301 301 301 300 301 301 301 302 302 304 305 306 307 307 308 308 309 309 310 310 310 311 312 314 315 317 318 319 319 319 319 320 320 320 320 319 319 320 320 320 320 320 319 320 320 320 321 320 320 320 320 319 320 320 319 319 319 319 319 319 318 318 317 317 317 317 316 316 315 315 314 314 313 312
312 312 312 314 315 315 316 314 313 311 311 318 318 314 314 313 308 304 302 302 302 301 302 301 300 300 300 300 300 301 302 302 304 305 306 306 307 307 308 308 308 308 309 309 309 310 310 311 313 315 315 315 316 317 317 317 317 318 318 317 317 317 317 316 317 316 317 317 318 318 318 318 318 318 317 316 317 317 317 317 317 316 316 316 315 315 315 315 315 314 314 314 313 313 313 312 311
313 313 312 315 315 316 320 318 314 313 311 314 316 313 314 312 306 304 302 301 301 300 300 300 300 299 299 299 300 301 301 302 303 304 305 306 306 307 307 307 306 307 307 307 307 307 307 308 308 309 309 310 311 311 311 312 313 314 314 314 314 314 313 312 312 313 312 312 312 312 312 312 313 313 312 313 313 313 313 313 313 313 312 311 311 311 311 312 312 312 311 311 311 310 310 310 310
315 315 313 315 315 316 319 317 315 316 314 312 312 315 320 316 311 308 303 301 301 300 300 299 298 298 298 299 299 300 301 302 303 304 305 305 306 306 305 306 306 306 306 306 306 307 307 307 307 307 307 307 307 307 307 308 309 309 309 310 310 310 309 308 308 307 307 306 306 306 306 305 305 306 306 306 307 307 307 307 306 306 306 306 305 306 306 307 308 308 308 307 308 308 308 308 308
316 318 315 314 316 316 316 315 314 319 321 314 311 320 330 324 318 312 304 303 302 300 299 298 298 298 298 299 299 299 300 301 302 303 304 305 305 305 306 306 306 306 306 306 306 306 306 306 306 306 306 306 306 306 306 307 307 307 307 307 306 306 306 306 305 304 304 304 304 303 303 303 303 303 303 303 303 303 303 303 303 303 302 302 302 302 302 303 303 304 304 304 304 305 305 306 306
318 318 316 314 313 314 315 315 315 321 322 313 309 317 326 326 324 315 305 305 304 300 299 298 298 298 297 298 298 299 299 300 302 303 303 304 304 305 306 305 305 305 305 305 305 305 305 305 305 305 305 305 305 305 305 306 306 306 306 306 306 305 305 305 304 304 304 303 303 303 303 303 303 303 302 302 302 302 302 302 302 302 301 301 301 301 301 301 300 301 301 301 301 302 302 303 303
321 317 316 317 315 316 318 316 317 320 319 316 314 315 317 321 321 311 305 308 305 302 301 298 297 297 297 297 298 299 300 300 302 302 303 304 304 305 305 304 304 304 304 304 304 304 304 304 304 304 304 304 304 304 304 304 304 304 305 305 305 304 304 304 303 303 303 302 303 302 302 302 302 302 302 301 301 301 301 301 300 301 301 300 300 300 300 300 299 299 299 299 299 300 300 300 300
320 313 313 316 316 318 319 318 318 315 313 320 322 315 315 322 320 308 305 309 308 305 303 300 298 297 297 297 298 299 300 301 302 302 303 303 304 304 304 304 303 303 303 303 303 303 303 303 303 303 303 303 302 303 303 303 303 303 303 303 303 303 303 302 302 302 301 301 302 301 300 300 300 300 300 299 299 299 298 298 298 298 297 297 297 297 297 297 297 297 297 297 298 298 298 299 299
312 308 313 315 315 317 318 319 320 315 314 321 323 317 317 324 324 313 308 311 313 309 304 300 298 297 297 298 298 299 299 300 302 302 302 303 303 303 303 302 302 302 302 302 302 302 302 302 302 302 302 302 302 302 302 302 302 302 302 302 302 302 301 301 301 301 300 299 299 299 298 297 296 296 296 296 296 295 295 294 294 294 294 293 293 293 293 293 293 293 293 293 293 294 295 295 296
306 312 320 318 317 318 318 319 318 316 320 321 318 316 316 321 326 320 313 312 312 309 305 300 298 297 297 297 298 298 299 300 301 301 302 302 302 302 302 301 301 301 301 301 301 301 301 301 301 302 301 301 301 300 301 301 300 301 300 300 300 300 299 299 299 299 297 297 297 296 295 294 294 293 293 293 293 293 292 292 292 292 292 292 292 292 292 292 291 291 291 291 291 291 291 291 292
308 319 323 319 319 318 318 320 318 320 325 320 313 312 313 319 325 320 312 308 306 307 306 301 298 297 297 297 297 298 298 299 300 300 301 301 301 301 301 301 300 300 300 301 301 300 300 300 301 301 300 300 300 300 300 300 299 300 299 298 298 297 297 297 297 296 295 295 294 293 293 293 293 292 292 292 292 292 292 291 292 292 291 292 291 291 291 291 291 291 291 291 291 290 290 290 290
315 320 321 321 322 321 323 323 319 321 321 314 311 313 313 318 321 315 312 308 302 301 302 300 298 298 298 297 297 297 298 298 299 300 300 300 300 300 300 300 300 300 300 300 300 300 300 300 300 300 300 299 299 299 299 299 299 298 297 297 296 295 295 295 295 295 294 294 293 293 293 293 293 293 293 293 292 292 291 291 291 291 291 291 291 290 290 290 290 290 290 290 290 290 290 290 290
315 318 320 322 322 324 329 324 318 318 317 311 310 313 315 319 317 311 309 305 299 298 299 300 299 299 298 298 297 297 297 298 298 299 299 299 300 300 300 300 299 299 299 299 299 299 299 299 299 299 299 298 297 297 297 297 297 297 296 295 295 294 294 294 294 294 293 293 293 293 293 293 293 293 293 292 292 292 291 291 291 291 291 290 290 290 290 290 290 290 290 289 289 289 289 289 289
313 317 318 320 323 326 328 326 323 321 318 314 310 314 322 323 313 304 301 299 296 298 300 300 300 299 299 297 296 297 297 297 298 298 299 299 299 299 299 299 299 299 299 298 298 298 298 298 298 298 297 296 296 296 295 296 295 295 294 294 294 294 293 293 293 293 292 292 292 292 292 292 292 292 291 291 291 291 291 291 291 290 290 290 290 290 290 290 289 289 289 289 289 289 289 289 289
312 312 315 317 321 324 320 316 317 316 317 316 314 317 321 316 306 298 298 298 296 298 299 298 299 298 297 297 296 297 296 297 297 298 298 298 298 299 298 298 298 298 298 298 297 297 297 297 297 296 296 295 294 294 294 294 294 293 293 293 293 293 292 292 292 292 292 292 292 291 291 291 291 291 290 290 290 290 290 290 289 289 289 289 289 289 289 289 289 289 289 289 289 289 289 289 289
313 311 317 316 313 321 321 312 308 310 315 317 316 319 316 310 306 301 299 300 298 297 297 297 297 297 297 297 297 296 296 297 298 298 298 298 298 298 297 297 297 297 297 297 296 296 296 296 295 295 295 294 293 293 293 293 293 293 293 292 292 292 292 291 291 291 291 291 291 290 290 290 290 290 290 290 290 290 289 289 289 289 289 289 288 288 288 288 288 288 288 288 289 289 289 289 289
316 315 317 313 310 317 320 316 314 314 317 318 315 316 316 314 314 305 300 302 300 297 297 296 296 297 297 297 297 297 297 298 298 298 298 298 298 297 297 296 296 296 296 296 295 295 295 294 294 294 293 293 293 293 293 292 292 292 292 292 291 291 291 290 290 290 290 290 290 290 290 290 290 290 290 290 289 289 289 289 289 288 288 288 288 288 288 288 288 288 288 288 288 288 289 289 289
313 314 312 312 316 319 316 317 320 318 318 320 315 311 312 315 316 312 309 307 302 298 297 296 296 296 296 297 297 297 298 298 297 298 298 297 297 296 296 295 295 294 294 295 295 294 294 293 292 292 292 292 292 292 292 292 292 291 291 291 291 291 291 290 290 290 290 290 290 290 290 290 289 289 289 289 289 289 288 288 288 288 288 288 288 288 288 288 288 288 288 288 288 288 288 289 289
308 309 308 311 316 318 316 316 317 318 319 320 316 312 314 316 315 318 318 310 301 299 298 297 297 296 297 298 298 298 297 297 298 298 298 298 297 296 295 295 294 294 293 294 294 293 293 292 292 292 292 292 292 292 292 291 291 291 291 291 291 291 291 291 290 290 290 290 290 290 290 289 289 289 288 288 288 288 288 288 288 288 288 288 288 288 288 288 288 288 288 288 288 288 288 288 288
311 312 312 312 313 313 316 314 313 316 319 321 319 315 318 317 312 316 318 309 300 299 299 298 297 297 297 298 299 298 298 298 299 299 298 298 296 295 294 293 293 293 293 293 293 292 292 291 291 291 292 292 292 291 291 291 291 291 291 291 291 291 291 291 290 290 290 290 290 289 289 289 288 288 287 287 287 287 287 287 287 287 287 287 287 287 287 287 287 287 287 287 288 288 288 288 288
313 313 314 314 313 314 316 314 312 314 316 320 319 315 317 316 308 310 312 305 299 298 298 298 298 297 298 299 299 299 299 299 299 299 298 297 296 295 293 293 292 292 292 292 292 291 291 291 291 291 292 292 291 291 291 291 291 291 291 291 291 291 291 291 291 290 290 290 289 289 289 288 288 287 287 287 287 286 286 286 286 286 286 286 287 287 287 287 287 287 287 287 287 287 287 287 287
Wind_Speed
7 6 7 6 7 5 4 4 1 2 4 3 2 1 2 3 1 1 3 3 2 2 3 2 1 4 2 1 3 3 3 4 3 2 0 3 4 5 4 0 2 2 4 10 13 15 17 18 17 17 16 16 16 15 14 13 12 10 9 9 9 9 9 10 9 7 7 6 4 3 2 2 1 1 1 2 3 3 4 6 7 6 6 5 4 3 2 2 3 1 1 1 0 1 1 1 1
6 5 6 5 6 4 2 3 2 3 5 3 1 2 3 3 1 3 5 4 2 2 1 1 2 3 3 2 2 2 3 4 4 2 2 4 4 5 5 2 2 2 4 8 11 13 15 17 17 17 16 15 15 15 14 13 12 11 10 9 8 8 9 10 9 8 8 7 5 4 3 2 2 2 2 2 2 3 4 5 6 6 5 4 4 3 2 1 2 1 1 2 2 2 2 3 3
6 4 5 5 5 4 1 3 2 2 5 3 3 4 2 1 4 7 7 6 2 4 2 2 2 3 2 1 1 1 2 3 3 4 3 4 4 4 5 4 2 3 4 7 9 11 13 15 16 16 16 15 14 14 14 13 12 11 10 9 9 9 10 11 10 9 9 7 6 5 4 3 2 3 4 4 3 3 4 5 6 5 4 4 4 3 2 1 1 1 3 5 6 5 5 5 5
6 4 5 4 3 3 3 4 2 4 3 2 2 3 2 3 7 8 6 5 6 4 2 2 1 2 1 1 2 2 3 3 2 2 2 4 3 4 4 4 3 3 4 6 7 9 11 13 14 15 15 15 14 14 13 13 13 12 11 10 9 10 11 11 11 10 9 8 7 6 4 2 2 3 4 5 5 4 4 4 5 5 4 4 5 3 2 2 3 5 6 8 8 8 8 7 7
6 6 7 5 1 2 3 3 2 4 3 4 1 3 4 6 6 6 6 6 4 3 2 3 2 2 2 2 2 2 2 2 1 1 3 4 2 4 3 3 3 2 3 5 6 8 10 12 13 14 15 15 15 14 14 13 13 12 11 11 10 10 11 11 12 11 10 9 7 6 4 3 2 2 3 3 4 5 5 5 5 6 5 5 5 3 4 5 8 9 9 9 8 9 9 8 7
7 6 8 6 4 2 2 3 2 1 4 5 2 4 5 6 6 6 8 4 1 2 3 2 1 3 3 2 2 3 2 2 2 2 3 3 2 4 4 3 2 2 3 4 5 6 8 11 12 14 14 14 15 14 14 13 13 12 11 11 10 10 11 11 13 12 11 9 8 6 5 4 3 2 3 2 2 4 6 5 5 5 4 4 4 6 8 10 11 10 8 8 8 8 8 8 8
7 6 6 4 4 3 3 3 2 1 2 4 2 4 5 5 6 5 7 2 0 2 2 1 1 3 2 3 3 3 3 4 4 4 3 2 1 4 4 3 2 2 3 4 5 6 7 9 11 13 14 15 15 15 14 13 13 12 11 11 11 11 11 12 13 13 11 10 9 7 5 4 4 3 4 4 3 3 5 5 4 3 4 5 6 9 10 12 12 11 8 6 7 8 8 7 8
8 6 4 3 2 5 4 3 3 2 0 3 4 6 7 6 4 3 4 1 2 4 2 1 1 1 2 4 5 5 5 5 5 6 5 2 0 3 4 3 2 1 2 4 5 6 6 8 10 12 13 14 15 15 14 13 13 12 11 11 11 11 11 12 13 13 12 11 10 8 5 5 5 5 5 6 5 4 4 4 4 4 4 6 7 9 11 12 13 12 10 7 7 7 7 7 7
8 7 3 3 2 3 3 1 2 3 3 4 5 7 7 5 2 1 3 2 2 3 4 2 0 1 3 6 7 6 6 6 6 6 5 4 2 2 3 3 3 2 1 3 5 6 7 7 9 10 12 13 15 15 14 14 13 13 12 12 12 12 12 12 13 13 12 11 11 9 6 6 6 6 6 7 7 6 5 5 5 5 5 6 8 10 11 12 12 11 10 8 7 7 6 5 5
7 6 2 2 3 3 3 1 1 2 4 5 7 9 6 2 2 2 3 3 2 2 4 3 2 3 4 6 6 6 6 7 8 6 5 5 3 1 2 3 3 3 1 2 4 6 7 7 8 10 11 13 14 15 15 14 14 13 13 12 12 12 12 13 13 13 13 12 11 9 8 8 7 7 7 8 9 8 8 7 7 6 6 7 9 10 12 12 10 9 8 8 7 7 5 5 4
6 6 3 4 4 2 1 2 4 4 5 6 6 6 3 3 3 2 2 4 5 4 4 4 2 3 4 6 5 6 7 8 8 7 5 6 5 3 2 1 1 2 3 3 4 6 7 8 8 10 11 12 14 15 15 15 14 14 14 12 13 13 12 13 13 14 13 12 12 10 9 9 8 7 8 8 9 10 9 9 8 8 8 8 9 10 11 11 10 7 7 7 7 6 5 5 4
4 3 4 4 3 1 2 2 4 6 6 4 2 4 4 3 2 2 3 3 6 7 5 4 3 3 2 4 6 5 8 11 12 10 7 6 7 6 5 4 3 2 3 4 5 6 7 8 9 10 11 13 14 15 15 15 15 15 15 13 13 13 13 14 14 14 13 13 13 11 10 9 9 9 9 9 10 10 10 10 10 9 8 9 9 10 10 10 10 8 8 7 6 6 5 5 4
3 2 4 3 2 2 2 1 4 5 5 2 1 5 6 4 3 4 4 3 5 4 5 4 3 3 2 5 6 2 6 14 15 12 9 7 8 9 8 7 6 5 4 5 6 6 7 8 9 10 11 13 14 15 16 16 16 16 16 14 13 13 13 14 14 14 14 14 13 12 11 10 10 10 10 11 11 11 11 11 11 11 10 9 9 10 10 10 9 8 8 8 6 5 5 5 5
4 3 4 2 1 2 3 0 2 0 2 3 2 6 7 4 3 4 2 2 4 1 4 5 3 3 3 5 6 5 11 17 16 15 13 9 9 11 11 11 10 9 7 6 6 6 8 8 9 11 12 13 15 16 17 17 17 17 17 15 14 14 13 14 14 14 14 15 14 13 12 12 11 12 11 12 13 13 13 13 13 12 11 10 10 10 10 10 9 8 8 7 6 5 4 5 5
4 3 4 3 2 0 3 1 1 4 2 3 2 9 9 3 3 6 3 1 2 2 5 5 3 4 5 5 9 13 17 18 17 17 15 13 11 10 12 13 13 12 11 8 7 7 8 9 9 11 13 13 14 16 17 18 18 18 18 17 15 14 14 14 14 14 14 15 15 14 13 13 13 13 13 14 15 15 16 16 15 14 12 11 11 10 10 10 9 7 8 7 6 4 3 4 5
4 3 5 3 1 1 2 2 2 3 3 4 2 11 9 4 6 7 6 5 6 8 8 7 6 8 10 12 15 18 17 17 17 16 14 14 12 9 10 11 13 14 13 12 10 9 9 9 10 11 13 13 14 16 17 18 19 19 19 18 17 16 15 15 15 15 15 15 16 15 14 14 14 14 14 15 16 17 18 18 16 15 13 13 12 10 10 10 8 7 7 7 5 4 4 4 5
3 3 4 2 1 2 2 4 3 3 5 4 4 10 6 6 9 8 10 11 11 11 10 10 11 13 15 15 14 16 15 15 14 13 13 13 12 10 9 10 12 13 14 14 13 12 11 11 11 11 13 13 14 15 16 17 18 19 19 19 18 17 16 16 16 16 16 16 17 17 16 15 15 15 16 16 17 17 18 18 16 16 16 15 13 11 11 10 8 7 7 7 6 5 4 4 5
2 3 3 1 2 3 4 6 5 3 3 4 6 9 4 6 10 11 12 13 11 12 13 13 14 13 11 11 13 16 16 15 13 12 12 11 11 11 11 11 12 13 14 15 14 14 13 13 12 12 13 13 14 14 15 16 17 18 19 19 19 18 17 17 17 16 17 17 18 18 17 16 17 17 17 16 17 16 16 16 16 16 17 17 15 12 12 11 9 6 7 8 7 6 5 5 6
3 3 2 2 5 5 5 6 6 3 4 7 9 8 4 6 9 11 9 12 13 11 15 15 13 13 11 14 17 17 15 13 11 10 9 9 10 11 12 12 13 15 16 17 16 16 16 15 14 14 14 14 14 15 15 15 16 17 18 19 19 19 18 18 18 17 18 18 18 19 19 18 18 18 18 17 17 16 15 15 16 16 17 17 15 13 12 11 9 7 7 8 8 7 6 6 6
2 3 1 5 6 4 5 5 6 6 7 9 9 6 6 9 10 8 6 11 13 9 13 13 11 16 20 20 18 15 12 10 8 7 6 6 8 10 11 12 12 13 15 16 17 17 17 17 16 16 16 15 15 15 16 16 16 16 16 17 19 19 19 19 19 19 19 19 19 19 20 19 19 19 18 18 17 16 16 16 17 17 18 19 16 14 13 10 9 8 8 8 9 9 8 7 7
2 4 3 4 3 1 6 5 6 8 7 7 8 6 9 12 9 7 5 6 10 11 12 9 10 19 23 19 15 14 12 8 6 6 6 6 7 8 10 11 11 11 12 13 15 16 17 17 17 16 17 16 16 15 16 16 16 16 16 17 17 19 21 19 19 20 20 20 19 20 20 19 19 19 18 18 17 17 18 17 17 18 19 20 17 15 13 11 10 10 9 8 9 10 10 9 9
2 4 5 4 4 1 7 6 7 8 7 7 7 7 10 12 10 10 7 4 10 16 14 14 17 20 19 14 13 13 10 8 7 6 7 8 8 9 11 12 12 12 12 12 12 14 15 15 16 16 16 17 16 15 16 16 16 16 16 16 16 19 23 21 19 21 20 20 19 19 20 20 20 20 19 19 18 18 19 17 18 19 20 20 18 17 14 12 12 12 11 9 10 11 12 11 10
2 4 5 4 4 5 9 10 10 10 9 9 8 9 11 12 12 12 11 14 19 22 19 18 17 13 10 9 9 10 10 11 10 9 9 10 11 12 13 14 13 13 12 12 12 12 12 13 13 14 15 15 15 15 14 15 15 16 16 16 15 16 19 20 19 20 20 19 19 20 20 20 20 20 20 20 18 17 18 19 19 19 20 20 20 18 14 14 14 13 13 11 10 12 13 13 12
3 3 4 4 6 7 10 12 13 14 13 15 14 11 13 13 10 10 15 18 17 14 11 9 7 5 4 5 7 8 10 11 11 12 12 12 14 15 15 14 14 14 14 15 14 13 13 11 11 11 12 13 14 13 13 13 13 14 15 15 16 14 14 19 20 21 22 20 20 21 21 20 20 20 19 18 18 17 18 18 18 18 20 20 19 17 16 16 15 14 14 12 11 12 14 14 13
4 4 4 3 6 9 13 15 17 18 16 17 14 12 17 16 11 11 15 13 9 7 5 4 3 3 5 6 7 7 8 9 10 10 11 13 15 15 15 14 14 15 15 17 18 17 15 13 10 9 10 10 11 11 11 10 10 11 12 13 15 15 12 16 20 22 23 23 21 18 18 19 18 18 18 16 16 19 20 18 18 21 22 19 18 18 19 19 17 16 15 13 13 13 14 16 15
4 4 4 5 10 13 15 17 18 16 14 14 10 12 17 12 7 6 6 7 8 6 5 5 4 7 10 11 10 8 8 8 9 10 11 13 14 15 14 14 13 12 13 15 17 18 16 13 10 9 9 9 9 9 9 8 8 8 9 10 11 12 13 14 16 19 21 23 22 20 17 15 14 16 18 16 15 18 20 19 19 21 21 17 17 20 21 21 19 17 16 14 14 14 15 16 17
2 3 6 9 13 15 15 17 20 16 14 14 8 10 13 5 2 2 6 10 8 6 5 5 6 8 9 9 9 10 10 9 9 10 11 12 13 13 12 12 12 11 10 11 12 14 13 11 9 9 9 9 8 7 8 7 6 6 7 8 8 8 10 13 16 17 19 21 21 22 18 13 14 16 17 18 18 17 17 17 16 17 17 15 17 20 19 18 16 16 16 14 13 14 15 17 18
3 5 8 10 12 14 14 16 18 10 7 8 6 7 8 2 2 1 7 10 8 6 6 5 5 3 2 4 6 8 10 10 9 10 10 11 11 11 11 11 12 12 11 9 8 8 8 7 8 9 10 10 10 8 8 7 6 6 5 5 6 6 6 10 13 13 13 14 16 18 16 14 15 15 14 15 18 17 15 14 14 14 14 14 16 16 14 14 14 15 15 13 12 13 14 16 18
4 4 5 9 9 10 10 8 5 1 2 3 2 4 6 3 4 5 10 9 7 6 6 4 2 1 1 2 4 5 7 8 9 10 10 9 9 9 10 11 11 11 11 10 8 7 5 4 6 9 12 13 12 10 9 8 7 6 5 5 4 4 5 6 8 8 10 11 13 15 15 15 14 12 12 12 14 17 15 13 14 12 12 13 14 13 13 13 13 14 14 13 13 13 13 14 16
4 3 2 5 8 7 4 1 0 0 3 2 3 2 6 7 4 6 11 10 6 6 6 4 3 2 1 1 2 3 4 6 7 9 9 8 7 8 8 9 10 10 10 9 8 7 5 2 4 8 11 13 13 11 9 8 7 5 4 3 2 2 1 1 2 4 8 10 11 11 11 12 11 10 11 10 11 14 14 12 11 10 10 11 11 11 12 12 13 13 14 14 14 14 13 13 14
2 2 2 3 2 5 5 1 2 1 2 4 5 1 7 9 2 5 12 12 7 6 7 5 4 3 2 1 1 1 2 4 6 6 6 7 7 7 7 7 8 9 9 8 7 6 5 3 1 4 7 9 10 10 9 8 6 4 2 0 1 2 1 1 4 3 3 6 8 9 8 8 8 8 8 7 8 9 10 10 8 9 9 10 10 11 11 12 13 13 14 15 16 16 15 14 14
2 1 3 3 2 6 9 5 1 1 1 3 5 2 6 9 2 4 15 14 8 8 8 5 4 4 3 2 2 2 3 4 4 4 5 6 6 6 7 7 8 8 8 8 8 7 5 3 2 2 4 5 7 8 8 7 7 6 6 5 5 7 6 7 11 10 8 7 7 10 11 11 10 10 8 7 8 8 9 8 7 8 9 10 10 11 12 12 13 13 14 15 16 17 16 15 15
3 0 4 3 2 3 7 4 1 1 1 2 1 2 4 7 3 8 17 14 9 8 8 6 5 5 4 4 3 3 3 3 3 5 6 7 7 7 7 7 7 8 8 8 7 6 4 4 3 1 3 4 5 6 6 7 7 6 7 8 7 8 8 7 8 9 11 10 9 10 12 13 13 12 10 8 9 10 10 9 8 9 10 10 10 10 11 12 12 12 13 15 16 17 17 17 16
3 0 3 4 3 2 4 4 4 5 3 2 1 2 5 9 8 14 17 10 7 9 9 7 7 6 6 5 5 4 4 4 6 8 8 8 8 7 7 7 7 7 7 7 6 6 5 4 4 3 4 5 6 6 6 7 7 7 7 7 7 7 7 8 7 7 6 5 5 5 5 8 9 8 8 9 11 13 13 13 12 13 13 12 12 13 11 10 11 10 11 13 14 16 17 18 18
4 2 3 3 3 3 4 5 3 5 5 4 3 4 8 11 9 13 15 9 8 11 10 8 8 7 7 6 6 6 7 8 9 9 9 8 8 7 7 7 7 7 7 8 7 7 7 7 7 7 8 8 9 9 8 8 7 7 7 6 6 6 6 7 7 7 7 6 6 5 4 5 6 6 7 8 11 13 13 13 14 14 13 13 14 13 10 11 12 11 12 12 11 12 14 15 18
6 5 5 4 4 4 5 6 4 1 3 5 6 7 8 9 7 9 12 9 11 12 10 9 9 9 9 8 8 8 9 10 10 9 8 8 7 7 8 8 8 8 8 8 8 8 9 10 9 9 12 12 11 10 10 8 7 8 7 6 7 8 7 6 5 4 4 4 3 4 5 5 6 7 8 8 8 11 12 12 12 12 10 11 10 10 11 13 14 14 15 15 14 14 15 16 17
5 3 3 4 5 5 5 5 5 0 1 6 6 5 7 7 5 8 7 7 11 10 9 10 10 9 10 9 10 9 10 10 9 7 7 7 7 8 8 8 8 8 9 9 9 10 12 11 10 12 14 12 11 12 11 10 9 8 7 8 9 10 8 6 4 4 4 3 1 2 3 2 4 6 7 7 7 7 8 7 7 8 9 11 11 12 13 14 15 16 17 18 18 19 20 20 19
2 2 3 4 4 6 6 5 5 1 2 5 3 3 8 5 2 7 6 6 8 8 8 9 9 10 10 10 10 10 10 9 7 7 8 8 8 8 8 8 9 10 12 13 13 13 13 12 13 14 13 11 12 12 10 10 9 6 6 9 8 6 6 4 4 4 4 2 1 1 2 2 2 4 5 5 6 7 7 9 9 11 12 14 15 15 16 16 17 17 18 19 20 21 22 22 23
3 2 2 5 4 4 6 4 5 2 3 4 4 4 8 2 4 6 8 7 7 8 8 8 8 9 10 10 11 10 10 9 9 10 10 10 10 10 12 15 16 17 18 18 18 18 17 17 16 15 13 12 13 11 9 8 8 6 6 7 5 4 4 3 2 2 0 2 3 4 6 8 9 9 10 10 11 11 12 14 15 16 17 17 17 17 18 19 21 21 22 22 22 22 22 21 21
4 4 3 5 3 0 4 4 4 2 1 2 3 5 6 1 4 4 7 9 10 11 10 10 9 10 10 10 11 11 12 12 13 13 13 13 14 15 19 22 22 23 24 24 24 24 24 24 22 21 20 19 18 15 14 13 11 10 9 8 6 6 9 7 5 4 2 1 1 2 3 5 7 9 10 12 13 14 15 15 16 16 17 16 16 16 17 19 20 22 23 23 23 22 21 20 19
3 5 6 5 4 5 6 3 4 3 3 1 2 5 5 1 1 1 4 7 9 9 10 11 10 10 10 10 12 13 14 15 16 17 17 18 19 21 24 25 25 26 27 27 27 27 27 27 26 25 25 24 22 20 18 16 14 13 12 11 10 11 11 9 8 8 7 6 6 6 6 5 5 5 5 7 8 8 9 10 10 10 11 11 12 13 13 14 15 16 17 19 19 19 19 18 17
3 5 10 10 8 7 6 2 4 3 3 3 3 3 5 4 1 4 4 3 5 6 8 10 9 9 10 12 13 14 15 17 19 21 21 22 23 24 26 26 25 27 28 27 27 26 26 26 26 25 25 25 23 22 19 17 16 15 13 13 12 11 12 12 12 13 11 10 10 9 9 8 7 7 6 6 6 6 6 6 7 7 8 8 9 9 10 10 10 11 12 14 15 16 17 17 17
2 5 8 10 8 5 4 2 2 1 2 2 3 1 4 5 4 3 5 4 3 4 6 7 7 9 11 12 14 15 17 19 21 23 24 24 25 25 26 26 26 27 27 26 25 25 24 24 24 24 25 24 23 21 18 17 17 16 15 14 14 13 14 16 16 15 14 13 11 10 10 10 10 10 10 10 10 10 10 9 10 10 10 10 10 10 10 11 11 11 12 12 12 13 15 16 17
3 4 4 6 7 6 6 6 4 3 2 3 3 1 3 5 4 2 5 5 3 3 3 4 6 8 10 12 14 16 18 20 22 24 25 26 25 25 25 24 25 25 25 23 23 23 22 22 22 22 23 23 21 20 18 16 16 16 15 14 15 16 17 18 16 15 15 12 11 12 13 13 13 13 13 13 13 13 13 13 12 12 12 12 12 12 13 13 12 12 12 12 12 13 13 14 15
5 2 6 6 6 6 4 5 3 1 2 4 4 1 2 5 4 2 2 3 1 2 3 3 6 8 10 13 14 17 19 21 23 25 25 25 24 24 23 23 23 23 22 22 21 21 20 20 20 20 21 21 19 17 16 16 16 15 15 13 14 16 17 16 15 14 14 11 11 13 13 13 13 13 13 13 13 13 14 14 14 13 14 14 14 14 14 14 13 13 14 14 14 14 14 14 15
4 5 7 5 5 5 4 5 3 2 1 4 6 3 2 5 5 2 1 3 4 4 4 5 7 9 11 14 16 17 19 21 23 24 24 24 23 22 22 21 21 21 20 20 20 19 19 18 18 19 20 18 17 16 15 15 15 14 14 13 14 15 14 13 11 11 12 10 10 11 11 12 12 12 12 12 12 12 13 13 14 14 15 15 14 14 14 15 15 16 16 16 15 15 15 15 15
7 6 6 6 6 5 3 2 3 2 2 6 5 3 3 3 5 3 3 2 4 5 4 5 8 11 13 15 16 18 19 20 22 23 23 22 22 21 20 19 19 19 19 18 18 17 16 16 15 17 18 16 15 14 13 13 13 12 13 12 12 13 11 9 8 9 10 9 9 10 11 11 11 11 12 11 11 12 12 13 13 13 14 14 14 15 15 16 16 17 17 17 17 17 16 15 15
6 4 4 4 3 4 4 4 3 1 5 5 4 2 4 4 5 3 3 2 2 4 6 8 10 14 16 17 17 18 19 20 21 22 22 21 20 19 18 18 17 17 16 16 16 15 14 13 13 14 15 13 12 11 10 11 10 10 10 10 10 10 8 7 7 8 9 9 10 10 9 9 10 10 11 11 12 12 12 12 12 13 13 14 14 15 15 15 16 16 17 17 18 18 18 18 18
4 4 5 3 3 3 3 3 0 3 5 3 2 1 3 6 6 3 3 3 3 4 5 12 17 20 21 20 19 19 19 20 21 21 20 20 19 18 17 16 16 15 14 14 13 12 12 11 10 11 12 12 10 9 8 8 8 8 8 7 7 7 6 6 7 8 8 9 9 9 9 10 10 11 12 13 14 14 14 14 14 14 15 15 15 15 15 16 16 16 17 18 19 19 20 21 21
4 5 5 3 2 2 2 3 2 4 4 2 1 1 1 5 4 3 4 4 5 7 7 16 24 26 25 23 21 20 20 20 21 21 20 19 18 17 16 15 14 13 12 12 11 10 9 9 8 8 10 10 9 8 7 7 7 7 7 6 6 6 5 6 7 7 8 8 9 9 10 11 12 13 13 14 15 15 16 16 16 17 17 17 17 17 18 18 18 18 19 19 20 20 21 22 23
4 4 5 4 4 4 3 3 3 3 3 2 2 0 3 4 1 3 4 4 4 4 7 17 24 26 25 23 22 21 21 21 21 20 20 19 18 16 15 14 13 11 11 10 9 8 7 7 6 6 8 9 7 7 6 6 6 7 6 6 5 5 6 6 7 7 8 8 9 10 11 11 12 13 13 14 14 15 16 16 17 17 18 18 19 19 20 20 21 21 22 22 23 24 24 24 25
2 3 5 3 4 4 2 3 4 2 2 3 2 2 3 4 1 2 2 3 3 4 11 19 22 23 24 24 23 23 22 22 22 21 20 19 18 16 15 14 12 11 10 9 8 7 5 5 5 5 6 7 7 6 5 5 6 6 5 5 5 6 6 6 7 8 9 9 11 11 12 13 13 14 14 15 15 16 17 17 17 18 18 18 19 20 21 21 22 23 24 25 25 27 28 28 29
2 2 3 4 4 6 3 2 1 3 2 3 2 2 3 0 1 3 3 3 3 5 11 18 22 23 25 26 25 24 23 23 23 22 21 19 18 16 15 14 12 10 9 8 7 7 5 4 4 4 5 6 6 5 5 5 5 5 4 4 5 5 6 7 7 8 9 10 11 12 13 14 14 15 16 17 17 18 18 19 19 19 19 20 20 21 22 23 24 25 26 27 28 29 30 31 32
4 2 5 3 2 4 3 1 2 3 3 4 0 3 3 1 1 2 2 1 2 4 8 13 19 22 25 27 27 26 25 25 24 23 21 20 19 17 16 14 12 11 10 8 8 7 6 5 4 4 4 5 5 4 4 4 4 4 4 4 5 5 6 7 8 9 9 10 11 12 13 14 16 17 17 18 18 19 20 20 21 22 22 23 23 24 25 26 27 28 29 30 31 32 33 33 34
4 4 3 3 2 1 2 1 1 1 3 4 3 2 3 4 4 2 4 7 8 7 7 10 16 23 27 29 29 28 27 27 26 25 23 21 20 18 17 15 14 13 11 10 8 7 7 7 6 5 5 5 4 4 4 3 3 3 4 5 6 7 8 9 10 11 11 12 13 14 15 16 17 17 18 18 19 20 21 22 23 23 24 25 26 27 28 29 30 31 32 33 34 35 37 38 38
3 2 2 2 2 3 2 2 2 2 2 3 4 2 2 5 5 7 9 11 12 11 10 11 18 26 30 32 32 31 30 30 28 26 24 22 21 19 17 16 15 14 12 11 10 9 8 8 7 6 5 5 4 3 3 2 2 4 5 6 6 7 8 10 11 12 13 14 15 16 16 17 18 18 19 19 19 20 21 21 22 23 24 25 26 27 28 29 31 32 33 34 35 36 38 39 40
2 2 2 1 1 2 1 1 2 3 3 2 3 4 5 4 3 7 9 9 12 15 13 13 21 28 31 32 34 34 32 31 29 27 25 23 21 20 19 17 16 15 13 12 11 10 10 10 9 8 6 5 4 3 2 0 2 3 4 5 7 8 9 11 13 14 16 17 17 18 18 18 18 18 19 19 20 20 21 21 22 23 24 25 26 27 28 30 31 32 33 33 34 35 36 38 39
4 4 5 5 4 3 2 4 1 2 2 4 3 6 7 4 2 4 5 5 11 16 15 15 23 30 32 34 35 35 34 32 29 27 25 23 23 22 21 19 18 17 16 15 14 13 13 12 10 9 7 6 5 4 3 2 3 5 6 8 10 12 14 16 17 18 20 21 22 22 22 21 21 21 21 22 22 22 23 24 25 26 27 28 29 30 31 32 33 33 34 34 35 36 37 37 38
Wind_Direction
323 318 316 328 328 323 327 342 8 3 64 87 331 43 237 222 208 280 272 284 289 284 215 234 209 164 164 214 226 241 219 188 182 113 103 287 340 335 329 221 173 134 168 181 193 194 189 189 191 194 199 201 203 206 207 209 212 215 218 222 227 229 220 213 211 207 202 198 193 180 167 164 174 174 164 163 165 135 123 137 138 144 155 162 171 175 190 178 165 131 66 63 319 306 315 288 283
343 332 336 350 345 341 307 14 76 346 49 78 292 175 261 294 334 237 223 221 216 345 341 227 221 218 246 257 262 293 252 238 243 245 304 320 328 327 333 317 197 152 157 175 192 199 196 193 193 195 200 204 207 211 213 212 215 217 220 223 225 226 222 216 208 205 203 200 203 200 206 216 232 247 245 231 195 140 131 142 142 151 164 174 184 190 208 177 156 109 13 334 309 286 278 268 263
2 348 356 2 0 16 54 35 81 63 70 91 281 244 293 345 237 239 225 224 269 337 325 258 242 229 221 14 299 187 246 273 280 266 299 331 331 341 335 315 251 191 156 170 191 200 203 200 196 197 199 203 207 213 214 213 216 219 221 223 223 222 224 219 211 207 206 205 206 207 214 225 250 268 270 259 226 170 153 155 149 158 172 185 197 207 231 198 169 6 340 324 310 292 281 274 270
15 18 14 4 16 36 62 46 117 111 108 168 310 272 253 196 233 253 255 278 292 299 308 314 296 238 234 335 296 231 277 286 280 243 302 344 343 349 341 321 285 227 174 169 187 199 207 207 204 201 201 203 205 212 214 213 215 220 221 223 224 222 225 220 213 211 208 210 212 212 216 235 271 290 286 268 239 195 168 167 158 163 173 202 216 215 243 278 284 294 309 308 298 289 284 278 276
15 23 18 2 56 60 74 75 106 95 163 184 71 289 250 215 238 271 290 316 289 255 316 334 331 314 292 288 258 226 317 331 308 238 309 347 5 2 1 337 300 251 206 177 179 195 206 210 210 207 206 205 206 212 213 213 214 217 218 219 223 222 226 221 215 213 210 213 215 215 228 256 279 293 288 267 237 203 174 169 169 177 180 205 230 247 284 289 281 285 297 301 292 285 285 285 284
5 7 11 26 90 84 99 95 93 48 217 175 114 277 267 235 236 287 311 327 225 249 310 329 343 326 314 303 271 249 311 343 327 275 302 344 37 21 16 359 325 274 236 199 185 186 199 210 214 212 211 209 210 213 213 215 215 216 217 216 219 220 225 224 218 215 214 217 216 223 241 258 264 265 253 219 208 189 164 164 179 192 201 230 269 290 296 292 286 292 306 308 297 287 286 290 292
1 352 1 50 76 39 97 117 170 211 229 176 170 253 270 266 238 295 328 356 46 311 315 328 348 332 314 338 318 290 314 305 302 293 295 331 52 36 30 22 6 307 263 226 206 189 195 206 212 215 214 213 215 217 216 217 218 218 217 216 217 218 222 225 223 219 220 222 223 232 241 244 244 246 246 225 200 180 163 167 190 207 239 267 287 295 301 302 304 313 323 319 298 290 291 292 292
360 356 14 74 47 25 89 111 220 205 325 238 250 250 270 296 249 283 319 286 335 328 347 321 14 29 288 323 319 312 326 313 311 296 278 269 167 62 55 45 43 359 290 247 221 205 202 204 209 215 216 216 219 222 221 221 222 221 219 219 220 219 221 225 226 225 227 229 233 240 239 238 244 243 245 240 220 202 193 196 212 229 250 271 289 302 310 313 316 325 332 326 303 297 298 295 293
353 356 23 71 74 36 52 39 275 236 276 270 267 267 281 307 249 268 296 277 321 322 345 331 224 340 292 311 314 319 336 334 337 313 280 249 211 104 90 76 66 65 320 264 239 223 216 214 212 212 216 218 221 226 226 225 225 226 223 221 223 222 222 226 227 228 231 234 241 245 241 243 250 255 250 248 240 225 225 235 244 252 260 282 304 316 322 323 325 333 337 332 322 314 308 304 306
357 14 62 76 81 52 15 293 292 255 263 267 266 278 290 312 278 261 278 300 313 309 346 341 272 283 295 304 322 357 355 341 340 324 285 247 230 204 132 100 75 59 25 269 250 239 229 224 219 215 216 217 221 227 228 229 228 230 229 224 225 226 225 227 229 231 233 237 244 244 243 246 252 261 254 250 250 242 240 250 258 267 275 292 312 326 329 330 334 341 338 339 338 326 321 323 329
360 22 68 75 67 76 150 230 292 288 280 288 283 296 306 302 300 265 280 323 321 312 328 344 305 292 308 300 321 5 11 10 1 344 303 253 246 245 232 184 93 30 2 302 254 246 241 235 229 222 218 217 220 225 229 230 231 233 234 231 229 229 227 228 229 232 235 238 243 243 242 247 252 256 252 249 250 251 251 253 258 268 280 292 312 326 332 333 338 345 335 336 340 331 333 340 348
5 14 53 85 109 166 178 214 283 292 307 327 348 17 12 323 311 298 300 317 322 325 328 344 332 325 328 307 326 11 36 24 8 359 334 277 258 252 251 247 249 295 333 324 276 251 247 244 240 232 225 221 220 224 228 229 231 234 237 236 234 233 230 230 230 231 234 237 241 243 242 244 248 249 248 249 248 251 253 256 263 271 278 288 308 323 332 336 340 345 333 332 336 334 342 344 347
43 135 70 86 151 141 142 206 276 305 332 339 313 0 357 316 286 301 287 277 304 322 340 341 325 328 294 308 328 16 13 353 346 347 340 305 277 270 268 258 256 267 292 319 305 268 252 249 249 244 235 227 224 224 228 228 229 232 236 236 236 237 234 232 232 231 232 234 239 240 240 243 248 249 245 246 248 249 252 259 268 270 273 283 302 319 329 335 341 340 326 327 331 333 343 341 337
64 136 92 101 89 132 161 203 298 353 312 273 300 351 352 305 284 311 283 272 296 312 341 325 301 316 303 315 326 319 327 328 326 329 329 317 290 278 279 270 262 262 272 298 307 281 261 256 254 253 246 236 230 226 227 228 228 231 235 236 236 237 237 236 234 233 231 231 237 238 240 243 246 250 248 247 250 252 253 260 268 267 268 281 297 313 324 332 338 333 320 320 323 326 335 333 327
75 94 91 111 43 6 188 144 124 128 208 254 335 350 350 334 326 327 309 295 314 335 325 304 277 301 311 310 309 314 318 317 317 319 321 320 301 280 279 275 267 265 268 279 293 287 270 263 263 263 257 247 239 233 230 229 229 231 233 235 236 237 238 238 237 236 233 231 234 237 241 245 248 251 251 251 253 256 257 261 270 270 269 280 297 312 321 328 333 324 314 315 314 314 319 320 319
78 78 74 80 32 304 211 174 137 129 238 241 355 352 354 341 341 334 323 318 303 305 297 279 273 284 291 295 306 315 319 316 316 315 316 320 313 296 288 281 272 269 270 275 285 290 278 266 267 272 269 259 250 242 236 233 231 231 232 234 235 237 238 237 238 237 235 233 233 236 240 245 250 251 251 252 254 257 259 262 270 274 275 283 297 311 318 323 327 317 308 308 307 303 307 312 312
59 60 68 47 174 219 207 189 169 155 263 275 355 358 356 317 328 328 317 308 298 296 286 277 278 282 291 301 313 318 318 316 313 312 311 312 315 313 309 300 285 277 276 277 281 284 281 272 267 274 278 271 261 252 245 240 236 233 231 233 235 237 237 236 237 237 238 235 234 236 238 242 246 250 252 253 256 258 260 263 267 271 277 284 296 308 317 320 320 315 305 304 304 298 301 308 306
42 84 92 312 197 201 185 184 193 172 281 293 336 346 332 304 320 325 316 304 306 304 292 290 289 292 301 311 320 319 318 316 312 310 307 307 310 312 312 308 298 288 279 275 276 279 280 278 273 274 281 280 271 261 253 247 243 238 233 233 235 236 236 237 236 236 238 237 236 237 238 241 243 249 253 255 259 262 262 265 268 272 276 283 293 306 315 315 316 312 305 303 299 293 292 297 298
69 106 101 242 202 209 201 190 200 193 294 297 314 324 298 287 309 323 317 302 317 317 302 303 303 314 324 322 324 321 318 315 313 313 310 312 310 306 305 300 295 291 283 280 281 283 282 280 274 271 276 281 276 267 260 254 249 245 239 236 236 236 235 236 239 238 238 238 238 239 240 241 244 249 253 256 258 261 264 265 269 275 278 282 289 305 310 308 313 311 304 301 292 283 280 282 286
87 105 133 245 217 233 246 230 236 256 292 301 309 313 294 298 305 309 299 303 312 297 293 300 309 322 324 325 328 324 323 319 310 311 311 311 304 298 296 293 290 287 284 284 284 285 285 283 278 273 272 274 275 271 264 259 253 250 246 242 241 242 239 236 239 241 240 240 240 241 242 242 245 248 251 254 257 261 263 262 267 269 273 279 286 299 303 302 312 312 304 296 284 276 271 273 276
156 147 186 225 185 253 268 270 285 287 296 292 298 311 304 309 308 287 289 318 304 287 296 305 313 318 318 324 331 330 334 336 323 321 323 318 306 295 291 292 290 284 282 281 280 279 280 281 280 276 272 270 271 272 268 265 261 256 251 246 242 242 246 244 240 243 242 242 242 242 245 246 246 248 250 251 252 257 260 261 265 266 272 277 284 294 297 304 314 312 304 291 278 270 265 265 270
178 212 231 220 159 238 287 304 314 309 307 295 296 303 302 305 298 282 271 250 273 290 307 311 308 309 312 324 334 338 349 1 5 358 351 344 332 321 310 304 297 290 286 285 283 278 275 274 274 273 271 269 270 271 268 267 264 263 259 253 244 236 243 249 244 246 247 245 247 246 245 245 247 249 250 250 249 251 257 261 260 265 274 277 284 293 296 307 314 313 306 291 278 269 262 261 265
212 261 266 260 221 245 288 303 310 308 303 297 292 292 296 298 297 293 269 255 276 293 300 300 302 306 314 333 340 347 -0 5 7 4 2 358 347 337 326 316 305 296 290 290 289 285 281 273 267 266 266 264 266 269 268 266 264 266 267 264 257 241 241 250 252 254 255 252 252 252 250 247 249 251 251 254 254 253 256 260 262 265 270 275 286 292 293 302 309 311 308 294 280 269 263 260 261
189 268 290 296 270 262 289 303 304 301 295 294 294 290 288 286 292 301 284 282 302 310 305 304 308 331 343 353 358 356 356 356 357 356 356 351 341 333 323 316 310 304 297 291 290 289 286 275 262 257 258 257 260 266 268 266 265 266 269 269 267 260 241 237 247 256 260 261 255 252 254 250 249 252 257 258 256 264 264 261 266 265 266 275 286 289 290 296 301 304 304 295 283 269 263 261 260
183 237 286 303 285 286 299 303 299 297 295 296 295 281 280 284 281 286 293 310 356 12 11 22 10 17 16 10 9 0 352 352 349 345 340 334 330 322 313 307 303 300 295 289 285 284 281 273 258 246 243 245 250 260 265 265 266 267 270 269 267 268 253 231 233 240 251 265 268 266 259 251 254 259 263 259 252 264 269 265 265 265 271 281 288 291 293 294 295 295 295 292 283 268 263 260 259
202 224 288 294 292 298 302 298 295 295 294 294 290 280 286 297 290 280 322 6 29 12 12 41 18 0 358 353 354 352 347 341 333 328 324 322 317 310 307 305 301 295 291 286 282 279 274 266 251 233 225 227 238 251 258 258 261 266 273 276 273 269 262 251 240 233 237 249 261 272 267 259 266 265 265 270 264 263 267 270 270 276 286 294 296 296 294 292 290 289 288 288 283 270 263 258 256
252 287 296 288 294 300 300 292 288 289 289 282 263 274 289 307 287 271 30 31 21 3 21 38 10 355 343 331 332 337 336 332 327 322 316 313 309 307 307 310 313 315 311 299 288 280 270 258 240 224 211 205 216 231 244 249 254 263 270 278 285 276 256 250 249 244 236 232 243 258 260 262 270 268 270 276 276 273 276 276 279 292 302 302 298 294 293 293 291 290 289 288 285 277 266 261 258
312 323 305 294 306 305 292 284 287 287 284 276 235 261 295 305 219 158 44 35 29 22 33 29 9 358 314 293 312 318 323 331 330 325 324 324 326 327 325 324 327 331 332 327 312 294 276 256 227 211 197 188 194 207 226 235 243 255 270 280 284 284 262 244 245 252 249 234 235 246 252 262 268 269 275 275 273 279 287 286 286 296 301 299 294 296 305 308 305 302 298 296 294 287 275 268 262
311 345 319 305 335 323 287 273 291 244 234 280 188 283 309 265 203 93 46 30 26 27 42 50 68 121 211 250 286 298 312 323 326 333 349 354 351 348 344 340 340 342 343 346 341 327 306 265 218 199 186 181 186 194 207 218 227 236 252 265 261 253 244 236 235 245 257 253 247 248 254 262 265 265 271 274 272 274 279 283 286 290 295 297 298 307 316 314 311 310 308 308 308 303 293 281 270
300 5 14 318 348 328 287 170 337 137 260 228 133 288 285 268 219 87 25 9 18 35 57 70 103 130 165 214 271 287 304 314 329 348 2 7 5 2 357 353 351 352 356 357 351 346 344 316 218 195 182 179 182 188 195 203 212 218 230 250 271 260 204 185 216 211 228 244 247 245 250 258 264 267 267 273 275 272 273 279 286 284 286 296 304 309 310 313 315 313 315 317 316 316 312 300 286
303 351 28 351 346 282 295 335 269 326 297 187 146 221 260 277 269 70 5 2 24 49 72 72 87 105 103 110 312 319 332 336 350 3 10 14 17 14 10 6 1 0 1 1 3 8 8 8 190 187 179 176 175 179 182 186 190 183 181 198 306 277 88 173 242 240 208 213 217 223 238 249 254 260 259 270 276 269 269 274 279 276 279 294 305 305 307 316 317 314 316 318 317 317 316 313 303
16 333 305 333 178 266 309 325 247 207 321 136 137 212 268 280 251 43 356 357 18 54 83 72 69 86 88 86 53 41 31 26 25 26 31 32 30 24 20 15 11 9 9 11 16 18 15 24 61 146 164 167 167 169 171 174 173 159 162 170 193 216 218 221 224 225 226 215 212 233 244 240 235 240 243 249 257 259 262 263 263 269 275 285 296 301 306 312 315 315 316 315 315 313 311 311 308
356 184 246 268 196 273 319 333 341 123 99 67 119 219 282 283 267 7 359 358 14 60 83 72 75 80 77 75 66 71 64 64 67 57 52 45 40 35 31 28 23 20 21 23 22 20 22 36 55 91 132 145 147 150 153 155 156 149 157 163 167 186 207 231 222 211 221 221 223 234 230 227 229 227 229 239 248 252 256 255 257 263 267 275 284 285 292 305 311 315 314 311 310 308 307 306 304
306 21 229 247 209 231 299 307 343 40 64 6 344 216 258 273 296 352 10 18 38 75 85 77 82 77 77 80 74 78 71 71 67 61 59 53 51 47 44 45 42 38 34 33 34 38 48 62 74 90 105 112 112 119 126 130 139 141 144 156 163 172 191 222 231 218 225 236 247 254 219 224 236 224 224 239 245 252 256 255 255 254 254 262 264 261 270 289 296 301 301 302 303 303 305 304 303
213 194 204 249 234 226 260 271 304 22 18 330 301 260 264 273 299 1 24 41 67 83 87 82 85 82 83 81 74 74 68 69 67 63 65 63 62 59 59 62 58 58 57 57 59 62 72 80 86 94 96 97 98 101 107 115 125 134 136 146 158 164 176 192 206 213 232 255 267 290 280 247 254 253 254 251 245 257 269 269 266 263 259 261 260 258 268 278 280 283 285 287 291 297 302 302 302
192 193 173 199 231 245 245 250 258 349 347 296 263 257 267 274 297 7 27 54 79 87 89 82 83 82 81 80 76 74 70 71 69 69 72 70 70 69 69 71 70 73 75 77 81 83 86 87 88 91 88 88 93 95 99 106 112 122 129 136 137 131 136 154 165 176 199 217 236 274 281 269 265 272 283 282 265 264 272 273 273 276 278 280 280 279 281 281 281 283 284 286 289 292 295 296 298
156 179 190 203 222 263 261 260 281 82 306 271 247 249 268 270 303 357 20 64 69 69 77 75 76 78 76 77 76 74 72 72 71 77 82 80 79 77 75 77 79 85 87 91 93 91 92 95 94 94 95 95 96 96 98 102 106 110 117 121 120 110 102 117 137 122 109 108 110 262 264 262 258 262 272 279 281 279 281 285 286 289 295 299 302 299 294 292 291 289 290 292 294 296 296 295 295
165 202 250 258 224 255 259 258 301 12 180 264 283 304 281 272 353 6 29 63 49 51 72 71 75 78 76 78 78 78 80 82 88 91 94 94 92 90 93 94 92 90 89 89 88 89 95 99 101 102 107 110 102 102 107 108 107 103 111 117 117 117 108 109 123 102 76 79 108 262 295 327 298 280 284 287 292 294 295 301 305 303 301 300 300 299 298 296 295 295 296 296 297 298 296 294 293
228 207 245 271 239 274 283 284 331 23 177 266 334 322 281 296 58 29 47 70 64 71 87 84 88 86 82 84 84 89 94 96 102 101 101 102 100 102 100 92 88 86 86 86 86 88 91 91 94 99 101 102 100 102 107 105 102 98 106 115 119 140 127 105 103 103 355 283 271 268 281 293 294 297 304 306 303 301 300 301 303 302 301 300 300 298 296 295 294 295 297 296 295 294 293 291 291
220 198 205 253 233 254 280 289 336 7 158 258 326 307 280 38 75 43 62 89 85 85 93 92 95 92 87 91 94 99 101 101 103 104 105 107 106 103 96 91 89 90 89 88 88 87 87 86 87 89 89 88 88 86 85 85 90 93 96 100 104 109 105 100 107 106 85 10 341 316 305 304 303 305 306 307 304 301 298 298 298 298 299 301 302 302 299 297 294 293 293 293 292 292 291 291 292
238 208 208 233 222 210 230 283 333 341 12 5 354 318 294 272 131 95 92 99 88 85 90 86 89 96 99 103 103 104 106 107 108 109 110 109 107 101 96 94 94 92 90 87 86 85 84 85 84 83 83 81 79 76 76 78 81 86 90 93 97 102 106 110 106 93 84 83 78 63 52 42 18 354 338 326 318 312 309 309 311 311 313 315 314 314 311 306 301 298 297 296 294 293 292 292 293
279 227 213 221 221 221 231 333 7 359 350 349 31 350 295 310 283 192 162 106 80 81 81 81 89 102 108 107 106 109 110 111 112 111 111 108 104 100 97 96 94 91 88 85 85 84 83 83 82 81 80 78 76 74 74 75 77 80 85 91 96 102 106 98 83 77 75 70 67 63 60 59 51 43 39 30 22 16 10 6 3 0 358 354 350 345 337 330 324 317 313 309 304 301 298 297 295
281 247 212 214 211 205 209 160 114 186 252 306 38 144 261 313 316 208 162 122 94 82 72 82 100 105 111 111 112 116 114 114 113 111 110 107 103 101 98 97 94 91 89 88 87 85 84 83 82 81 80 79 79 79 78 76 77 80 80 84 88 87 83 78 72 68 66 64 66 67 66 65 61 57 55 52 48 43 39 36 33 30 28 26 22 15 8 2 355 346 340 332 325 319 314 311 307
240 256 156 170 182 186 191 164 172 224 247 325 358 144 243 293 292 232 147 136 105 84 79 90 109 117 121 122 122 122 120 118 117 114 112 108 105 103 101 99 97 95 93 92 89 86 83 81 80 79 79 78 78 77 77 73 72 73 71 70 71 70 69 72 71 68 67 67 68 68 66 64 62 59 58 56 54 51 47 43 41 38 36 35 31 29 27 22 14 7 1 354 348 342 336 331 325
245 214 113 134 152 159 151 132 162 291 21 312 303 138 249 270 273 340 119 168 215 187 183 154 138 141 138 135 132 129 126 123 120 117 113 110 108 106 105 103 100 99 97 93 88 85 81 79 78 78 77 75 74 70 68 68 65 64 63 61 64 69 72 76 77 77 76 71 67 67 63 60 57 54 52 50 48 46 43 41 39 35 34 33 30 29 28 24 21 17 14 11 7 4 359 352 343
198 129 93 78 75 81 83 102 117 42 42 252 249 184 205 271 283 326 84 244 242 205 194 179 161 158 151 145 141 135 131 127 122 119 117 114 113 111 108 107 105 102 98 93 88 85 82 79 77 77 77 75 73 69 64 66 65 62 63 64 68 75 79 83 84 82 80 73 67 66 61 58 55 51 49 44 40 39 36 32 28 25 25 23 20 19 17 14 13 11 11 10 8 6 5 1 357
137 110 64 49 38 41 42 56 90 61 277 246 241 209 192 266 284 238 180 221 198 166 167 177 173 171 165 156 148 142 137 131 127 124 123 120 118 116 114 112 109 104 99 95 92 88 85 81 75 75 79 78 76 73 66 68 68 64 67 70 73 81 88 89 85 78 76 67 59 56 51 49 46 44 43 39 35 33 29 24 20 17 14 10 6 5 4 2 2 1 359 358 356 356 356 354 353
114 93 72 67 351 11 25 356 47 116 255 257 265 237 176 215 265 244 215 233 189 173 175 173 178 180 173 164 157 151 143 138 134 131 129 126 124 122 121 117 112 108 104 99 96 92 89 84 74 74 82 83 81 79 72 73 74 70 75 78 78 84 90 86 75 70 66 55 50 48 41 36 32 29 26 22 21 20 17 13 9 5 0 358 357 355 354 352 350 348 345 344 343 344 343 342 342
86 98 96 88 333 7 3 312 304 229 247 256 269 198 178 227 249 232 222 252 261 257 211 178 176 179 176 169 163 158 151 146 142 140 136 134 131 129 126 121 118 115 109 103 100 95 90 87 75 72 84 88 86 86 81 78 78 77 81 81 77 78 72 60 54 51 47 39 35 29 20 15 11 7 5 5 5 5 3 359 357 354 352 351 349 347 345 343 341 339 337 336 336 336 335 335 335
143 144 126 129 115 67 297 273 275 271 260 257 281 84 212 263 262 210 234 272 280 281 243 192 179 176 174 171 168 164 159 155 151 148 145 142 139 137 133 129 127 124 116 109 106 100 93 92 83 73 85 95 95 93 90 84 82 83 85 79 72 66 49 41 39 36 34 26 17 10 3 0 358 355 354 353 353 352 348 347 346 344 342 340 339 338 336 335 334 333 332 332 332 331 332 331 330
172 157 132 145 153 164 229 226 222 261 280 291 293 130 192 215 229 225 248 295 311 280 212 187 180 176 173 173 172 171 167 162 159 156 153 151 147 143 141 139 137 131 124 119 115 110 102 98 94 82 90 103 107 102 97 90 84 84 81 71 61 49 35 32 31 31 28 19 11 5 358 355 352 350 348 345 343 340 337 336 334 332 332 330 329 328 327 327 327 327 327 328 328 327 326 326 326
202 129 115 160 178 157 180 195 179 196 297 294 242 228 219 188 216 295 294 7 41 123 159 168 174 176 176 179 179 177 174 169 166 163 161 158 154 151 150 148 147 141 134 132 127 123 115 108 109 101 102 111 112 106 97 85 81 78 71 60 47 38 28 22 21 19 14 9 3 357 351 348 346 344 341 338 336 334 332 331 329 327 327 325 324 323 323 323 323 323 324 324 324 324 323 324 323
159 123 172 214 174 120 110 223 92 74 280 271 196 237 285 300 297 324 31 41 58 119 150 163 171 176 181 185 184 181 179 174 172 170 167 164 161 160 159 156 156 153 148 146 143 140 136 131 129 119 115 119 116 106 94 85 80 73 62 51 37 28 18 12 12 8 4 1 353 346 342 338 336 334 332 331 329 328 326 325 325 324 323 323 322 322 322 322 322 322 323 323 323 322 322 322 322
122 181 208 199 131 96 100 230 356 38 252 273 266 233 259 204 251 323 43 100 194 174 168 169 175 182 188 191 188 185 182 178 177 176 173 171 169 168 166 164 164 163 163 162 159 159 159 158 155 146 136 130 122 110 96 86 78 65 53 43 30 20 13 9 6 2 358 352 342 337 334 330 328 326 326 325 323 322 321 321 321 321 321 321 321 321 321 321 322 321 322 322 322 321 320 320 320
119 181 179 112 140 148 91 164 237 255 251 285 305 262 239 205 202 216 209 203 196 190 186 183 188 191 194 194 191 187 185 184 183 181 179 178 176 174 172 172 172 173 174 175 174 175 175 174 172 164 156 145 134 124 109 94 74 49 30 23 13 4 1 356 352 348 343 337 332 329 328 325 323 322 321 320 318 318 318 318 318 319 319 319 319 320 320 320 321 321 321 321 321 321 320 320 320
73 112 96 68 156 167 151 152 166 201 235 284 301 300 246 230 201 185 201 198 181 181 189 197 199 197 196 194 191 190 190 188 186 184 184 183 180 180 179 179 181 181 182 183 184 186 185 184 182 177 174 166 155 148 134 100 41 21 10 3 355 347 345 341 337 334 330 327 326 325 324 323 321 320 319 318 317 316 315 315 315 315 316 317 317 318 318 318 318 318 318 318 318 318 318 318 318
126 138 158 191 122 107 212 210 123 139 179 227 284 285 261 249 199 187 204 193 178 184 188 196 202 199 198 196 194 193 192 189 188 187 186 186 185 184 184 184 186 186 188 190 191 192 192 192 191 189 189 184 179 177 171 329 346 349 342 337 337 337 336 334 331 329 327 327 327 327 326 324 322 320 318 316 315 314 314 314 314 314 315 316 316 317 317 316 315 315 315 315 314 314 314 314 314
157 183 191 187 176 144 213 244 181 115 179 182 213 272 269 248 191 195 206 188 187 192 189 193 200 199 199 199 197 196 194 190 190 190 190 191 190 189 188 188 191 194 195 195 194 196 198 199 199 197 198 198 199 208 227 274 307 325 332 334 335 335 333 331 328 326 326 327 327 327 327 326 323 321 318 317 316 316 317 317 317 318 318 318 318 318 317 316 315 315 314 314 314 314 313 312 312